CZ-3B DEB, 38748

Orbit data source: Space-Track

CZ-3B DEB, 38748 is space debris in HEO originally from a launch on Sat, 04 Sep 2010 UTC launched from the Xichang Space Center, China (XSC). Debris objects in space refer to the collection of defunct objects orbiting the Earth. Examples of debris include non-operational satellites, rocket bodies, and fragments generated from explosions, collisions, or faulty payload assembly.

Loading next visibility...
Identifier
38748, 2010-042C
Orbit
HEO
Country
Flag of CNCN / PRC
Related business
Manufacturer
CALT
Mission
Spacecraft
Bus & Motor
Unknown
Mass
Unknown
Launch date (UTC)
2010-09-04 (16 years ago)
Launch vehicle
Unknown
Launch site
Xichang Space Center, China (XSC)
Object type
Payload
Rocket body
Debris
Shape & HBR
Unknown shape, 0.1 m
Radar Cross Section
Medium (>0.1 m² and <1 m²)

Expand to show TLE details & history
Last TLE update: 4 weeks ago

TLE from 4 weeks ago
0 CZ-3B DEB
1 38748U 10042C   26123.23389270  .00014169  00000-0  17676-1 0  9994
2 38748  23.8081  78.0662 7220257 304.8530   7.1517  2.30966298  3415
Epoch: 2026-05-03T05:36Z
TLE epoch observation values (Epoch: 2026-05-03T05:36:48.329Z)
Latitude
-0.00116°
Longitude
132.64406°
Altitude
1,791.151 km
Speed
9.005 km/s
True Right ascension
05h 11m 56s
True Declination
0° 00' 04"
Sunlit
Object was in daylight at epoch
Visualization orbit readout
Latitude
Unknown
Longitude
Unknown
Altitude
Unknown
Speed
Unknown
Apparent Right ascension
Unknown
Apparent Declination
Unknown
Sunlit
N/A
Visualization observer readout
Local Sidereal Time
10:24:22
Azimuth
Unknown
Elevation
Unknown
Doppler factor
Unknown
Orbital elements
Apogee altitude
35,259.301 km
Perigee altitude
343.097 km
Semi-major axis
24,179.336 km
Eccentricity
0.72203
Inclination
23.8081°
RAAN
78.0662°
Arg. of periapsis
304.853°
True anomaly
55.63014°
Mean anomaly
7.1517°
Eccentric anomaly
23.93533°
Mean motion
0.57727 °/min
Orbital period
623.63 mins
BSTAR
0.017676
Loading maneuver chart data...
Computing Atmospheric mass density...
Loading historical data...
Loading historical data...
Loading historical data...
Loading historical data...
Loading historical data...
Loading historical data...
Loading historical data...

Documentation

Showing up to 5 results
|